sat.trackr.live / text

‹ back to catalog

STARLINK-32841

NORAD 62865 · 2025-022M

PAYLOAD ACTIVE UNKNOWN

§ Identity

Operator
Country
US
Launch date
2025-02-01
Launch site
AFWTR
Launch vehicle
Mass (kg)
RCS (m²)

Purposes: comms

External: N2YO · Heavens-Above · Gunter

§ Orbital elements

Epoch: 2026-05-25T03:09:52.100928Z

Period
94.11 min
Inclination
53.1567°
Eccentricity
0.0001186
Mean motion
15.30201574 rev/d
Perigee alt
474.4 km
Apogee alt
476.0 km
Semi-major
6,853.3 km
B*
-2.1049e-4
RAAN
134.5588°
Arg perigee
92.2617°
Mean anomaly
267.8520°
Rev number
7,359

§ Raw data

STARLINK-328411 62865U 25022M   26145.13185302 -.00006588  00000+0 -21049-3 0  99962 62865  53.1567 134.5588 0001186  92.2617 267.8520 15.30201574 73595

JSON: /api/v1/satellites/62865 · /tle

For live sub-satellite position, see the globe view (requires WebGL).

§ Visibility from observer

Set your observer location to see the next 7 days of passes ≥ 10°. The values pass through the URL so the page stays shareable.

No JS? Fill the form by hand. The geolocation button needs JavaScript.